[[{"header":{"parameterUnit":"m.s-1","parameterCategory":1,"la1":30.2991,"la2":30.254,"lo1":-89.0895,"lo2":-89.0444,"dy":0.0017,"dx":0.0017,"nx":28,"ny":28,"refTime":"2025-11-23T03:00:00:Z","depth":0,"parameterNumber":2,"parameterNumberName":"U-component_of_WINDS"},"data":[0,0,0,0,0,0,0,0,0,0,0,0,0,0,0,0,0,0,0,0,0,0,0,0,0,0,0,0,0,0,0,0,0,0,0,0,0,0,0,0,0,0,0,0,0,0,0,0,0,0,0,0,0,0,0,0,0,0,-3.1775,-3.1778,0,-3.2043,-3.2046,-3.2049,-3.2173,-3.2173,-3.2172,-3.2172,-3.2442,-3.245,-3.2457,0,0,0,0,0,0,0,0,0,0,0,0,0,-3.137,-3.1376,-3.1775,-3.1778,-3.1782,-3.2042,-3.2046,-3.205,-3.2173,-3.2173,-3.2172,-3.2172,-3.244,-3.2449,-3.2458,0,0,0,0,0,0,0,0,0,0,0,0,0,-3.1582,-3.1379,-3.1775,-3.1875,-3.1886,-3.2042,-3.2046,-3.2051,-3.2173,-3.2173,-3.2172,-3.2172,-3.2437,-3.2448,-3.2459,-3.2533,0,0,-3.2493,-3.2497,0,0,0,0,0,0,0,0,-3.157,-3.1597,-3.1857,-3.1868,-3.1881,-3.2074,-3.2002,-3.2212,-3.2173,-3.2064,-3.2172,-3.2172,-3.232,-3.2341,-3.2391,-3.2546,-3.2558,-3.2494,-3.25,-3.2505,-3.2508,0,0,0,0,0,0,0,-3.1555,-3.1586,-3.1881,-3.186,-3.1875,-3.1906,-3.1936,-3.2043,-3.219,-3.2073,-3.2083,-3.2113,-3.2327,-3.238,-3.2399,-3.2562,-3.2493,-3.2503,-3.251,-3.2514,-3.2793,-3.2794,0,0,0,0,0,0,-3.1524,-3.1573,-3.1873,-3.1889,-3.1722,-3.1913,-3.1947,-3.2013,-3.219,-3.2216,-3.2113,-3.2118,-3.2362,-3.2386,-3.2409,-3.2509,-3.2505,-3.2515,-3.2522,-3.2793,-3.2794,-3.2794,0,0,0,0,0,0,-3.1515,-3.155,-3.1862,-3.1734,-3.1776,-3.1921,-3.1994,-3.2018,-3.2072,-3.222,-3.2246,-3.2141,-3.2362,-3.2393,-3.2502,-3.252,-3.252,-3.253,-3.2792,-3.2793,-3.2794,-3.2709,0,0,0,0,0,0,-3.1503,-3.1546,-3.1576,-3.1734,-3.1782,-3.1951,-3.1995,-3.2023,-3.2091,-3.21,-3.2253,-3.2278,-3.2364,-3.2485,-3.2513,-3.2535,-3.2539,-3.2791,-3.2792,-3.2794,-3.2711,-3.2707,-3.2704,0,0,0,0,0,-3.1488,-3.154,-3.1576,-3.1612,-3.1823,-3.1952,-3.198,-3.2079,-3.2092,-3.2123,-3.2219,-3.2273,-3.2514,-3.2495,-3.2528,-3.2554,-3.279,-3.2792,-3.2794,-3.2713,-3.2708,-3.2704,0,0,0,0,0,0,-3.1378,-3.1562,-3.1605,-3.171,-3.1814,-3.1972,-3.2015,-3.2071,-3.2173,-3.2177,-3.2295,-3.2329,-3.2428,-3.2502,-3.2478,-3.2637,-3.2657,-3.2665,-3.2584,-3.2581,-3.2578,-3.2558,-3.2548,0,0,0,0,0,-3.1367,-3.1457,-3.1612,-3.169,-3.174,-3.1868,-3.1928,-3.1996,-3.2109,-3.2153,-3.2257,-3.2363,-3.2463,-3.2526,-3.2626,-3.2723,-3.2759,-3.2757,-3.2753,-3.275,-3.2755,-3.2814,-3.2815,-3.28,-3.28,-3.28,0,0,-3.1343,-3.1454,-3.1504,-3.1671,-3.176,-3.185,-3.1904,-3.1997,-3.2066,-3.2167,-3.2277,-3.2357,-3.2484,-3.2587,-3.2638,-3.2652,-3.2768,-3.2752,-3.2748,-3.2756,-3.2816,-3.2817,-3.2818,-3.2801,-3.2801,-3.2801,0,0,-3.1346,-3.1439,-3.1515,-3.1604,-3.1739,-3.1824,-3.1842,-3.1993,-3.205,-3.2163,-3.2241,-3.2324,-3.2493,-3.2582,-3.2648,-3.2687,-3.2741,-3.2716,-3.2698,-3.2754,-3.2755,-3.2756,-3.2771,-3.2775,-3.2722,-3.2721,-3.2721,0,-3.1299,-3.1439,-3.1546,-3.1636,-3.1707,-3.1805,-3.1883,-3.1964,-3.2123,-3.217,-3.2184,-3.2401,-3.2493,-3.262,-3.263,-3.268,-3.2705,-3.2699,-3.2746,-3.2749,-3.2752,-3.2768,-3.2773,-3.2718,-3.2718,-3.2718,-3.2719,0,-3.1375,-3.1471,-3.1516,-3.167,-3.1747,-3.1829,-3.1949,-3.2014,-3.2076,-3.2159,-3.2274,-3.2388,-3.2514,-3.255,-3.261,-3.2685,-3.269,-3.2723,-3.2746,-3.2748,-3.2764,-3.2771,-3.2712,-3.2713,-3.2715,-3.2716,0,0,-3.1315,-3.1529,-3.1544,-3.1616,-3.1773,-3.1849,-3.1937,-3.2062,-3.2116,-3.2223,-3.23,-3.2443,-3.2476,-3.2551,-3.2623,-3.2671,-3.2697,-3.27,-3.2705,-3.2696,-3.2789,-3.2762,-3.2767,-3.2734,-3.2736,-3.2737,-3.2778,0,-3.134,-3.1502,-3.1602,-3.1725,-3.1815,-3.1911,-3.1988,-3.2093,-3.2174,-3.2263,-3.2352,-3.2452,-3.2487,-3.2534,-3.2586,-3.2682,-3.2717,-3.2681,-3.2807,-3.281,-3.2772,-3.2776,-3.2748,-3.2781,-3.2785,-3.2786,-3.2787,0,-3.139,-3.1498,-3.1629,-3.1778,-3.182,-3.1887,-3.2011,-3.2095,-3.2216,-3.2272,-3.2358,-3.243,-3.2528,-3.2543,-3.2679,-3.2652,-3.271,-3.2765,-3.2769,-3.2784,-3.2798,-3.2792,-3.2794,-3.2799,-3.2798,-3.2797,-3.2797,0,-3.1334,-3.1511,-3.1613,-3.1672,-3.1848,-3.1894,-3.1969,-3.2091,-3.216,-3.2268,-3.2314,-3.2431,-3.2495,-3.2584,-3.2687,-3.2689,-3.2813,-3.2837,-3.2862,-3.286,-3.2883,-3.288,-3.2895,-3.292,-3.292,-3.292,-3.292,0,-3.1351,-3.1428,-3.1591,-3.1653,-3.1743,-3.1857,-3.1943,-3.2026,-3.2134,-3.2214,-3.2304,-3.2378,-3.2509,-3.2599,-3.268,-3.2781,-3.2809,-3.2857,-3.2878,-3.2849,-3.2843,-3.2888,-3.2889,-3.2921,-3.2921,-3.2921,-3.292,0,-3.1303,-3.1415,-3.1533,-3.1691,-3.1733,-3.1792,-3.1928,-3.1992,-3.2079,-3.218,-3.2211,-3.2347,-3.2458,-3.257,-3.2719,-3.2774,-3.2873,-3.29,-3.2832,-3.2843,-3.2863,-3.2859,-3.2907,-3.292,-3.2935,-3.2934,-3.2934,0,-3.1306,-3.1368,-3.1534,-3.1595,-3.1669,-3.1766,-3.1838,-3.1954,-3.2025,-3.2169,-3.2217,-3.2335,-3.2436,-3.2609,-3.2721,-3.2836,-3.2867,-3.2876,-3.2885,-3.2855,-3.2868,-3.2863,-3.2871,-3.2872,-3.2871,-3.2871,-3.287,0,-3.1301,-3.1354,-3.1454,-3.1575,-3.1659,-3.1759,-3.1863,-3.1908,-3.2044,-3.2119,-3.2235,-3.2313,-3.2467,-3.2583,-3.2712,-3.279,-3.2853,-3.2867,-3.2879,-3.285,-3.2808,-3.2832,-3.2822,-3.2865,-3.2865,-3.2866,-3.2866,-3.2866,-3.1279,-3.1339,-3.1466,-3.1575,-3.1666,-3.1761,-3.1831,-3.1927,-3.2026,-3.2161,-3.2223,-3.234,-3.2462,-3.2642,-3.2719,-3.2812,-3.2828,-3.2845,-3.285,-3.2852,-3.2846,-3.2794,-3.2836,-3.2836,-3.2836,-3.2836,-3.2837,0,-3.1279,-3.1366,-3.1466,-3.1609,-3.1695,-3.1748,-3.1866,-3.1935,-3.2037,-3.2146,-3.2244,-3.2377,-3.2492,-3.2614,-3.2735,-3.2786,-3.2818,-3.2814,-3.2811,-3.2828,-3.2824,-3.2802,-3.2786,-3.2786,-3.2786,-3.2786,-3.2786,-3.2786,-3.1289,-3.1394,-3.1462,-3.1613,-3.17,-3.1815,-3.1878,-3.1967,-3.2055,-3.22,-3.2296,-3.2376,-3.2491,-3.2622,-3.2729,-3.2762,-3.2803,-3.279,-3.2831,-3.2825,-3.2828,-3.2832,-3.2812,-3.2798,-3.2798,-3.2829,-3.2829,-3.2829]},{"header":{"parameterUnit":"m.s-1","parameterCategory":1,"la1":30.2991,"la2":30.254,"lo1":-89.0895,"lo2":-89.0444,"dy":0.0017,"dx":0.0017,"nx":28,"ny":28,"refTime":"2025-11-23T03:00:00:Z","depth":0,"parameterNumber":3,"parameterNumberName":"V-component_of_WINDS"},"data":[0,0,0,0,0,0,0,0,0,0,0,0,0,0,0,0,0,0,0,0,0,0,0,0,0,0,0,0,0,0,0,0,0,0,0,0,0,0,0,0,0,0,0,0,0,0,0,0,0,0,0,0,0,0,0,0,0,0,4.0991,4.0994,0,4.1205,4.1208,4.121,4.1285,4.1284,4.1283,4.1282,4.1499,4.1505,4.1512,0,0,0,0,0,0,0,0,0,0,0,0,0,4.0648,4.0654,4.0991,4.0994,4.0997,4.1205,4.1208,4.1211,4.1285,4.1284,4.1283,4.1282,4.1497,4.1505,4.1513,0,0,0,0,0,0,0,0,0,0,0,0,0,4.0823,4.0656,4.0991,4.1059,4.1067,4.1204,4.1208,4.1212,4.1285,4.1284,4.1283,4.1281,4.1494,4.1504,4.1514,4.1599,0,0,4.1544,4.1548,0,0,0,0,0,0,0,0,4.0813,4.0835,4.1046,4.1054,4.1064,4.1217,4.1167,4.1341,4.1285,4.1202,4.1282,4.1281,4.1406,4.1423,4.1466,4.1609,4.1618,4.1544,4.155,4.1555,4.1557,0,0,0,0,0,0,0,4.08,4.0826,4.1076,4.1049,4.106,4.1079,4.1102,4.12,4.1308,4.1209,4.1215,4.124,4.1411,4.1456,4.1472,4.1621,4.1544,4.1553,4.1559,4.1563,4.1849,4.1851,0,0,0,0,0,0,4.0777,4.0816,4.1069,4.1082,4.0933,4.1086,4.1112,4.1169,4.1307,4.1327,4.124,4.1242,4.144,4.146,4.1479,4.1591,4.1555,4.1564,4.1569,4.1848,4.185,4.1852,0,0,0,0,0,0,4.0769,4.0799,4.106,4.0951,4.0986,4.1093,4.1156,4.1174,4.122,4.1331,4.1351,4.1267,4.144,4.1466,4.157,4.16,4.1568,4.1577,4.1846,4.1848,4.1851,4.1813,0,0,0,0,0,0,4.0759,4.0796,4.0828,4.0951,4.0991,4.1147,4.1158,4.1179,4.1237,4.1241,4.1361,4.138,4.1441,4.1555,4.1579,4.1613,4.1585,4.1843,4.1847,4.185,4.1812,4.1814,4.1816,0,0,0,0,0,4.0747,4.0808,4.083,4.086,4.1035,4.1148,4.1171,4.1241,4.1239,4.1273,4.1346,4.1376,4.1592,4.1565,4.1593,4.163,4.1842,4.1846,4.185,4.1811,4.1814,4.1816,0,0,0,0,0,0,4.0684,4.0825,4.0851,4.0953,4.1039,4.116,4.1206,4.124,4.1327,4.1327,4.141,4.1436,4.1535,4.1593,4.1559,4.1722,4.1719,4.1729,4.168,4.1683,4.1685,4.1669,4.1593,0,0,0,0,0,4.0683,4.0763,4.0882,4.0961,4.1003,4.1097,4.1149,4.1196,4.1287,4.1323,4.1402,4.1489,4.1578,4.1633,4.172,4.1821,4.185,4.1861,4.1862,4.1863,4.1871,4.1932,4.1939,4.1865,4.1865,4.1864,0,0,4.068,4.0767,4.0812,4.0951,4.1022,4.1105,4.1126,4.1212,4.1274,4.1335,4.144,4.1501,4.1604,4.1708,4.1757,4.1759,4.1898,4.1868,4.1868,4.1875,4.1937,4.1944,4.195,4.1867,4.1867,4.1866,0,0,4.0717,4.079,4.0866,4.0938,4.1046,4.1109,4.1127,4.1246,4.129,4.1396,4.1445,4.152,4.1669,4.1742,4.1798,4.1867,4.1899,4.1893,4.1902,4.1961,4.1967,4.1973,4.2,4.2008,4.19,4.19,4.19,0,4.0699,4.0825,4.09,4.0984,4.1045,4.1107,4.1185,4.1251,4.1382,4.1423,4.1423,4.1615,4.1688,4.1811,4.1828,4.1871,4.1896,4.1879,4.196,4.1967,4.1973,4.2,4.2009,4.1899,4.1899,4.1899,4.1899,0,4.08,4.0887,4.0935,4.1063,4.1129,4.1209,4.1297,4.1355,4.1397,4.1461,4.157,4.1661,4.1769,4.1801,4.1842,4.1932,4.193,4.1944,4.1943,4.1977,4.2004,4.2015,4.1897,4.1897,4.1898,4.1898,0,0,4.0802,4.0972,4.0988,4.1049,4.1175,4.1244,4.1329,4.1436,4.1486,4.1575,4.1649,4.1776,4.1792,4.1855,4.1905,4.1956,4.2009,4.1965,4.1969,4.1972,4.2117,4.2107,4.2117,4.2032,4.2034,4.2036,4.2109,0,4.0857,4.1011,4.1083,4.1206,4.1289,4.135,4.1425,4.1511,4.1573,4.1653,4.1722,4.1811,4.1823,4.1863,4.1917,4.1991,4.204,4.1987,4.2103,4.2106,4.2076,4.2131,4.2119,4.2184,4.212,4.2122,4.2123,0,4.0941,4.1033,4.1164,4.1284,4.1322,4.1387,4.1494,4.1569,4.1669,4.1711,4.1784,4.1833,4.1926,4.1919,4.205,4.2012,4.2065,4.2109,4.2113,4.2127,4.2117,4.2148,4.2206,4.2216,4.214,4.2139,4.2137,0,4.0932,4.1088,4.1188,4.1237,4.1379,4.1424,4.1485,4.1584,4.1646,4.1739,4.178,4.1881,4.1937,4.2015,4.2091,4.2079,4.2216,4.2214,4.2254,4.2253,4.228,4.2278,4.2349,4.2312,4.2311,4.2311,4.2311,0,4.0987,4.1065,4.1186,4.1248,4.1339,4.1421,4.1509,4.1575,4.1663,4.174,4.1798,4.1869,4.1964,4.2047,4.2107,4.2208,4.2232,4.227,4.2285,4.2265,4.2261,4.2301,4.2299,4.2314,4.2313,4.2313,4.2312,0,4.0991,4.1075,4.1189,4.1315,4.1349,4.1411,4.1519,4.1582,4.1649,4.1745,4.1773,4.1877,4.1978,4.2062,4.2193,4.2234,4.234,4.2357,4.2307,4.2315,4.2351,4.2347,4.2452,4.2471,4.2418,4.2419,4.2419,0,4.1021,4.1084,4.1218,4.1274,4.1335,4.1424,4.1488,4.1572,4.1636,4.1757,4.1806,4.1912,4.2001,4.216,4.2248,4.235,4.2371,4.2401,4.2387,4.2366,4.2374,4.237,4.2378,4.2402,4.2402,4.2402,4.2402,0,4.1066,4.1106,4.1195,4.1301,4.1376,4.1462,4.1551,4.1593,4.1694,4.1764,4.1869,4.1938,4.2075,4.2181,4.2293,4.2357,4.2398,4.2406,4.2422,4.2403,4.2372,4.2392,4.2312,4.2403,4.2403,4.2403,4.2403,4.2403,4.1086,4.1146,4.1251,4.135,4.1426,4.1508,4.1574,4.165,4.174,4.1859,4.1903,4.2012,4.2114,4.227,4.2334,4.2421,4.2426,4.2447,4.2453,4.2457,4.2456,4.2357,4.2442,4.2442,4.2442,4.2442,4.2442,0,4.1136,4.1207,4.1297,4.1421,4.1499,4.1532,4.1632,4.1696,4.1791,4.1883,4.1971,4.2094,4.2197,4.2294,4.2403,4.2454,4.2476,4.248,4.2478,4.2492,4.2444,4.2421,4.2461,4.2461,4.2461,4.2461,4.2461,4.2461,4.1171,4.1275,4.1328,4.1471,4.1542,4.165,4.1705,4.1782,4.1856,4.1991,4.2078,4.2141,4.2237,4.2353,4.245,4.2477,4.2515,4.2514,4.2545,4.2498,4.2495,4.2492,4.2471,4.2521,4.2522,4.2587,4.2588,4.2588]}]]